Year,Month,Day,Hour,Minute,Value (Times are PST for temperature in C)
2014,12,07,00,00,5.40
2014,12,07,00,01,5.40
2014,12,07,00,02,5.30
2014,12,07,00,03,5.30
2014,12,07,00,04,5.30
2014,12,07,00,05,5.30
2014,12,07,00,06,5.30
2014,12,07,00,07,5.30
2014,12,07,00,08,5.30
2014,12,07,00,09,5.30
2014,12,07,00,10,5.30
2014,12,07,00,11,5.30
2014,12,07,00,12,5.30
2014,12,07,00,13,5.30
2014,12,07,00,14,5.30
2014,12,07,00,15,5.30
2014,12,07,00,16,5.20
2014,12,07,00,17,5.20
2014,12,07,00,18,5.20
2014,12,07,00,19,5.10
2014,12,07,00,20,5.10
2014,12,07,00,21,5.10
2014,12,07,00,22,5.00
2014,12,07,00,23,5.00
2014,12,07,00,24,5.10
2014,12,07,00,25,5.10
2014,12,07,00,26,5.10
2014,12,07,00,27,5.20
2014,12,07,00,28,5.20
2014,12,07,00,29,5.20
2014,12,07,00,30,5.10
2014,12,07,00,31,5.10
2014,12,07,00,32,5.10
2014,12,07,00,33,5.10
2014,12,07,00,34,5.10
2014,12,07,00,35,5.10
2014,12,07,00,36,5.10
2014,12,07,00,37,5.10
2014,12,07,00,38,5.10
2014,12,07,00,39,5.10
2014,12,07,00,40,5.10
2014,12,07,00,41,5.10
2014,12,07,00,42,5.10
2014,12,07,00,43,5.00
2014,12,07,00,44,5.00
2014,12,07,00,45,5.00
2014,12,07,00,46,4.90
2014,12,07,00,47,4.90
2014,12,07,00,48,4.90
2014,12,07,00,49,4.90
2014,12,07,00,50,4.90
2014,12,07,00,51,4.90
2014,12,07,00,52,4.90
2014,12,07,00,53,5.00
2014,12,07,00,54,5.00
2014,12,07,00,55,5.00
2014,12,07,00,56,5.10
2014,12,07,00,57,5.10
2014,12,07,00,58,5.10
2014,12,07,00,59,5.10
2014,12,07,01,00,5.20
2014,12,07,01,01,5.20
2014,12,07,01,02,5.20
2014,12,07,01,03,5.20
2014,12,07,01,04,5.20
2014,12,07,01,05,5.20
2014,12,07,01,06,5.30
2014,12,07,01,07,5.30
2014,12,07,01,08,5.30
2014,12,07,01,09,5.30
2014,12,07,01,10,5.30
2014,12,07,01,11,5.30
2014,12,07,01,12,5.30
2014,12,07,01,13,5.20
2014,12,07,01,14,5.20
2014,12,07,01,15,5.20
2014,12,07,01,16,5.20
2014,12,07,01,17,5.20
2014,12,07,01,18,5.20
2014,12,07,01,19,5.20
2014,12,07,01,20,5.20
2014,12,07,01,21,5.20
2014,12,07,01,22,5.20
2014,12,07,01,23,5.10
2014,12,07,01,24,5.10
2014,12,07,01,25,5.10
2014,12,07,01,26,5.10
2014,12,07,01,27,5.00
2014,12,07,01,28,5.00
2014,12,07,01,29,5.10
2014,12,07,01,30,5.10
2014,12,07,01,31,5.10
2014,12,07,01,32,5.10
2014,12,07,01,33,5.10
2014,12,07,01,34,5.10
2014,12,07,01,35,5.20
2014,12,07,01,36,5.20
2014,12,07,01,37,5.20
2014,12,07,01,38,5.20
2014,12,07,01,39,5.20
2014,12,07,01,40,5.20
2014,12,07,01,41,5.30
2014,12,07,01,42,5.30
2014,12,07,01,43,5.30
2014,12,07,01,44,5.30
2014,12,07,01,45,5.30
2014,12,07,01,46,5.30
2014,12,07,01,47,5.30
2014,12,07,01,48,5.30
2014,12,07,01,49,5.30
2014,12,07,01,50,5.30
2014,12,07,01,51,5.30
2014,12,07,01,52,5.30
2014,12,07,01,53,5.40
2014,12,07,01,54,5.40
2014,12,07,01,55,5.40
2014,12,07,01,56,5.40
2014,12,07,01,57,5.50
2014,12,07,01,58,5.50
2014,12,07,01,59,5.50
2014,12,07,02,00,5.50
2014,12,07,02,01,5.50
2014,12,07,02,02,5.50
2014,12,07,02,03,5.60
2014,12,07,02,04,5.60
2014,12,07,02,05,5.60
2014,12,07,02,06,5.60
2014,12,07,02,07,5.60
2014,12,07,02,08,5.60
2014,12,07,02,09,5.60
2014,12,07,02,10,5.60
2014,12,07,02,11,5.60
2014,12,07,02,12,5.60
2014,12,07,02,13,5.60
2014,12,07,02,14,5.60
2014,12,07,02,15,5.60
2014,12,07,02,16,5.60
2014,12,07,02,17,5.60
2014,12,07,02,18,5.60
2014,12,07,02,19,5.60
2014,12,07,02,20,5.60
2014,12,07,02,21,5.60
2014,12,07,02,22,5.60
2014,12,07,02,23,5.60
2014,12,07,02,24,5.60
2014,12,07,02,25,5.60
2014,12,07,02,26,5.60
2014,12,07,02,27,5.70
2014,12,07,02,28,5.70
2014,12,07,02,29,5.70
2014,12,07,02,30,5.70
2014,12,07,02,31,5.80
2014,12,07,02,32,5.80
2014,12,07,02,33,5.80
2014,12,07,02,34,5.80
2014,12,07,02,35,5.80
2014,12,07,02,36,5.70
2014,12,07,02,37,5.70
2014,12,07,02,38,5.70
2014,12,07,02,39,5.60
2014,12,07,02,40,5.60
2014,12,07,02,41,5.60
2014,12,07,02,42,5.70
2014,12,07,02,43,5.60
2014,12,07,02,44,5.70
2014,12,07,02,45,5.70
2014,12,07,02,46,5.70
2014,12,07,02,47,5.80
2014,12,07,02,48,5.80
2014,12,07,02,49,5.90
2014,12,07,02,50,5.90
2014,12,07,02,51,6.00
2014,12,07,02,52,6.00
2014,12,07,02,53,6.00
2014,12,07,02,54,6.00
2014,12,07,02,55,6.00
2014,12,07,02,56,5.90
2014,12,07,02,57,5.90
2014,12,07,02,58,5.80
2014,12,07,02,59,5.80
2014,12,07,03,00,5.80
2014,12,07,03,01,5.80
2014,12,07,03,02,5.80
2014,12,07,03,03,5.80
2014,12,07,03,04,5.80
2014,12,07,03,05,5.80
2014,12,07,03,06,5.80
2014,12,07,03,07,5.80
2014,12,07,03,08,5.80
2014,12,07,03,09,5.80
2014,12,07,03,10,5.90
2014,12,07,03,11,5.90
2014,12,07,03,12,5.90
2014,12,07,03,13,5.90
2014,12,07,03,14,5.90
2014,12,07,03,15,5.90
2014,12,07,03,16,5.90
2014,12,07,03,17,5.90
2014,12,07,03,18,5.90
2014,12,07,03,19,5.90
2014,12,07,03,20,5.90
2014,12,07,03,21,5.90
2014,12,07,03,22,5.90
2014,12,07,03,23,5.90
2014,12,07,03,24,5.90
2014,12,07,03,25,5.90
2014,12,07,03,26,5.80
2014,12,07,03,27,5.80
2014,12,07,03,28,5.80
2014,12,07,03,29,5.80
2014,12,07,03,30,5.80
2014,12,07,03,31,5.90
2014,12,07,03,32,5.90
2014,12,07,03,33,5.90
2014,12,07,03,34,5.80
2014,12,07,03,35,5.80
2014,12,07,03,36,5.80
2014,12,07,03,37,5.80
2014,12,07,03,38,5.80
2014,12,07,03,39,5.90
2014,12,07,03,40,5.90
2014,12,07,03,41,5.90
2014,12,07,03,42,6.00
2014,12,07,03,43,6.00
2014,12,07,03,44,5.90
2014,12,07,03,45,5.90
2014,12,07,03,46,5.90
2014,12,07,03,47,5.90
2014,12,07,03,48,5.90
2014,12,07,03,49,5.90
2014,12,07,03,50,6.00
2014,12,07,03,51,6.00
2014,12,07,03,52,5.90
2014,12,07,03,53,5.90
2014,12,07,03,54,5.90
2014,12,07,03,55,5.90
2014,12,07,03,56,5.90
2014,12,07,03,57,5.90
2014,12,07,03,58,5.90
2014,12,07,03,59,5.90
2014,12,07,04,00,5.90
2014,12,07,04,01,5.90
2014,12,07,04,02,5.90
2014,12,07,04,03,5.90
2014,12,07,04,04,5.90
2014,12,07,04,05,5.90
2014,12,07,04,06,5.80
2014,12,07,05,02,5.60
2014,12,07,05,03,5.60
2014,12,07,05,04,5.60
2014,12,07,05,05,5.70
2014,12,07,05,06,5.70
2014,12,07,05,07,5.70
2014,12,07,05,08,5.70
2014,12,07,05,09,5.70
2014,12,07,05,10,5.60
2014,12,07,05,11,5.60
2014,12,07,05,12,5.60
2014,12,07,05,13,5.60
2014,12,07,05,14,5.70
2014,12,07,05,15,5.80
2014,12,07,05,16,5.80
2014,12,07,05,17,5.80
2014,12,07,05,18,5.80
2014,12,07,05,19,5.80
2014,12,07,05,20,5.80
2014,12,07,05,21,5.80
2014,12,07,05,22,5.90
2014,12,07,05,23,6.00
2014,12,07,05,24,6.00
2014,12,07,05,25,6.10
2014,12,07,05,26,6.10
2014,12,07,05,27,6.10
2014,12,07,05,28,6.00
2014,12,07,05,29,6.00
2014,12,07,05,30,5.90
2014,12,07,05,31,5.90
2014,12,07,05,32,5.90
2014,12,07,05,33,5.90
2014,12,07,05,34,5.90
2014,12,07,05,35,5.90
2014,12,07,05,36,5.90
2014,12,07,05,37,5.90
2014,12,07,05,38,5.90
2014,12,07,05,39,5.90
2014,12,07,05,40,6.00
2014,12,07,05,41,6.10
2014,12,07,05,42,6.10
2014,12,07,05,43,6.10
2014,12,07,05,44,6.10
2014,12,07,05,45,6.20
2014,12,07,05,46,6.20
2014,12,07,05,47,6.20
2014,12,07,05,48,6.20
2014,12,07,05,49,6.10
2014,12,07,05,50,6.10
2014,12,07,05,51,6.00
2014,12,07,05,52,6.00
2014,12,07,05,53,6.00
2014,12,07,05,54,6.10
2014,12,07,05,55,6.10
2014,12,07,05,56,6.10
2014,12,07,05,57,6.10
2014,12,07,05,58,6.10
2014,12,07,05,59,6.10
2014,12,07,06,00,6.10
2014,12,07,06,01,6.10
2014,12,07,06,02,6.20
2014,12,07,06,03,6.20
2014,12,07,06,04,6.30
2014,12,07,06,05,6.20
2014,12,07,06,06,6.20
2014,12,07,06,07,6.20
2014,12,07,06,08,6.20
2014,12,07,06,09,6.30
2014,12,07,06,10,6.20
2014,12,07,06,11,6.20
2014,12,07,06,12,6.10
2014,12,07,06,13,6.10
2014,12,07,06,14,6.10
2014,12,07,06,15,6.10
2014,12,07,06,16,6.10
2014,12,07,06,17,6.10
2014,12,07,06,18,6.10
2014,12,07,06,19,6.20
2014,12,07,06,20,6.30
2014,12,07,06,21,6.40
2014,12,07,06,22,6.40
2014,12,07,06,23,6.50
2014,12,07,06,24,6.40
2014,12,07,06,25,6.40
2014,12,07,06,26,6.40
2014,12,07,06,27,6.40
2014,12,07,06,28,6.30
2014,12,07,06,29,6.20
2014,12,07,06,30,6.20
2014,12,07,06,31,6.20
2014,12,07,06,32,6.20
2014,12,07,06,33,6.20
2014,12,07,06,34,6.20
2014,12,07,06,35,6.20
2014,12,07,06,36,6.20
2014,12,07,06,37,6.20
2014,12,07,06,38,6.20
2014,12,07,06,39,6.20
2014,12,07,06,40,6.20
2014,12,07,06,41,6.20
2014,12,07,06,42,6.20
2014,12,07,06,43,6.20
2014,12,07,06,44,6.20
2014,12,07,06,45,6.30
2014,12,07,06,46,6.30
2014,12,07,06,47,6.40
2014,12,07,06,48,6.40
2014,12,07,06,49,6.40
2014,12,07,06,50,6.40
2014,12,07,06,51,6.40
2014,12,07,06,52,6.40
2014,12,07,06,53,6.40
2014,12,07,06,54,6.40
2014,12,07,06,55,6.30
2014,12,07,06,56,6.30
2014,12,07,06,57,6.40
2014,12,07,06,58,6.30
2014,12,07,06,59,6.30
2014,12,07,07,00,6.40
2014,12,07,07,01,6.40
2014,12,07,07,02,6.40
2014,12,07,07,03,6.40
2014,12,07,07,04,6.40
2014,12,07,07,05,6.40
2014,12,07,07,06,6.40
2014,12,07,07,07,6.40
2014,12,07,07,08,6.40
2014,12,07,07,09,6.40
2014,12,07,07,10,6.40
2014,12,07,07,11,6.40
2014,12,07,07,12,6.40
2014,12,07,07,13,6.40
2014,12,07,07,14,6.50
2014,12,07,07,15,6.50
2014,12,07,07,16,6.50
2014,12,07,07,17,6.60
2014,12,07,07,18,6.70
2014,12,07,07,19,6.80
2014,12,07,07,20,6.90
2014,12,07,07,21,6.90
2014,12,07,07,22,6.90
2014,12,07,07,23,6.80
2014,12,07,07,24,6.80
2014,12,07,07,25,6.90
2014,12,07,07,26,7.00
2014,12,07,07,27,7.00
2014,12,07,07,28,6.90
2014,12,07,07,29,6.90
2014,12,07,07,30,6.80
2014,12,07,07,31,6.70
2014,12,07,07,32,6.60
2014,12,07,07,33,6.50
2014,12,07,07,34,6.50
2014,12,07,07,35,6.50
2014,12,07,07,36,6.40
2014,12,07,07,37,6.50
2014,12,07,07,38,6.60
2014,12,07,07,39,6.70
2014,12,07,07,40,6.80
2014,12,07,07,41,7.00
2014,12,07,07,42,7.10
2014,12,07,07,43,7.10
2014,12,07,07,44,7.10
2014,12,07,07,45,7.10
2014,12,07,07,46,7.10
2014,12,07,07,47,7.00
2014,12,07,07,48,7.00
2014,12,07,07,49,6.90
2014,12,07,07,50,6.90
2014,12,07,07,51,7.00
2014,12,07,07,52,7.10
2014,12,07,07,53,7.10
2014,12,07,07,54,7.10
2014,12,07,07,55,7.10
2014,12,07,07,56,7.10
2014,12,07,07,57,7.10
2014,12,07,07,58,7.10
2014,12,07,07,59,7.10
2014,12,07,08,00,7.10
2014,12,07,08,01,7.10
2014,12,07,08,02,7.10
2014,12,07,08,03,7.10
2014,12,07,08,04,7.10
2014,12,07,08,05,7.10
2014,12,07,08,06,7.10
2014,12,07,08,07,7.10
2014,12,07,08,08,7.10
2014,12,07,08,09,7.10
2014,12,07,08,10,7.10
2014,12,07,08,11,7.10
2014,12,07,08,12,7.10
2014,12,07,08,13,7.10
2014,12,07,08,14,7.20
2014,12,07,08,15,7.30
2014,12,07,08,16,7.40
2014,12,07,08,17,7.40
2014,12,07,08,18,7.50
2014,12,07,08,19,7.60
2014,12,07,08,20,7.70
2014,12,07,08,21,7.70
2014,12,07,08,22,7.70
2014,12,07,08,23,7.70
2014,12,07,08,24,7.80
2014,12,07,08,25,7.70
2014,12,07,08,26,7.70
2014,12,07,08,27,7.70
2014,12,07,08,28,7.70
2014,12,07,08,29,7.60
2014,12,07,08,30,7.60
2014,12,07,08,31,7.60
2014,12,07,08,32,7.60
2014,12,07,08,33,7.50
2014,12,07,08,34,7.50
2014,12,07,08,35,7.50
2014,12,07,08,36,7.50
2014,12,07,08,37,7.50
2014,12,07,08,38,7.50
2014,12,07,08,39,7.50
2014,12,07,08,40,7.40
2014,12,07,08,41,7.40
2014,12,07,08,42,7.40
2014,12,07,08,43,7.40
2014,12,07,08,44,7.50
2014,12,07,08,45,7.50
2014,12,07,08,46,7.40
2014,12,07,08,47,7.40
2014,12,07,08,48,7.50
2014,12,07,08,49,7.70
2014,12,07,08,50,7.80
2014,12,07,08,51,7.80
2014,12,07,08,52,7.90
2014,12,07,08,53,7.90
2014,12,07,08,54,7.90
2014,12,07,08,55,8.00
2014,12,07,08,56,8.10
2014,12,07,08,57,8.20
2014,12,07,08,58,8.30
2014,12,07,08,59,8.30
2014,12,07,09,00,8.30
2014,12,07,09,01,8.40
2014,12,07,09,02,8.50
2014,12,07,09,03,8.60
2014,12,07,09,04,8.70
2014,12,07,09,05,8.70
2014,12,07,09,06,8.70
2014,12,07,09,07,8.80
2014,12,07,09,08,8.80
2014,12,07,09,09,8.90
2014,12,07,09,10,8.90
2014,12,07,09,11,8.90
2014,12,07,09,12,8.80
2014,12,07,09,13,8.80
2014,12,07,09,14,8.80
2014,12,07,09,15,8.70
2014,12,07,09,16,8.70
2014,12,07,09,17,8.70
2014,12,07,09,18,8.70
2014,12,07,09,19,8.70
2014,12,07,09,20,8.60
2014,12,07,09,21,8.60
2014,12,07,09,22,8.60
2014,12,07,09,23,8.50
2014,12,07,09,24,8.50
2014,12,07,09,25,8.50
2014,12,07,09,26,8.50
2014,12,07,09,27,8.40
2014,12,07,09,28,8.40
2014,12,07,09,29,8.50
2014,12,07,09,30,8.60
2014,12,07,09,31,8.60
2014,12,07,09,32,8.70
2014,12,07,09,33,8.80
2014,12,07,09,34,8.90
2014,12,07,09,35,8.90
2014,12,07,09,36,9.00
2014,12,07,09,37,9.00
2014,12,07,09,38,9.00
2014,12,07,09,39,9.00
2014,12,07,09,40,9.00
2014,12,07,09,41,9.10
2014,12,07,09,42,9.10
2014,12,07,09,43,9.10
2014,12,07,09,44,9.10
2014,12,07,09,45,9.10
2014,12,07,09,46,9.10
2014,12,07,09,47,9.10
2014,12,07,09,48,9.00
2014,12,07,09,49,9.00
2014,12,07,09,50,9.10
2014,12,07,09,51,9.20
2014,12,07,09,52,9.20
2014,12,07,09,53,9.20
2014,12,07,09,54,9.20
2014,12,07,09,55,9.30
2014,12,07,09,56,9.40
2014,12,07,09,57,9.50
2014,12,07,09,58,9.50
2014,12,07,09,59,9.50
2014,12,07,10,00,9.50
2014,12,07,10,01,9.50
2014,12,07,10,02,9.50
2014,12,07,10,03,9.60
2014,12,07,10,04,9.60
2014,12,07,10,05,9.60
2014,12,07,10,06,9.60
2014,12,07,10,07,9.60
2014,12,07,10,08,9.60
2014,12,07,10,09,9.60
2014,12,07,10,10,9.60
2014,12,07,10,11,9.60
2014,12,07,10,12,9.60
2014,12,07,10,13,9.60
2014,12,07,10,14,9.60
2014,12,07,10,15,9.60
2014,12,07,10,16,9.60
2014,12,07,10,17,9.60
2014,12,07,10,18,9.60
2014,12,07,10,19,9.50
2014,12,07,10,20,9.50
2014,12,07,10,21,9.40
2014,12,07,10,22,9.40
2014,12,07,10,23,9.30
2014,12,07,10,24,9.30
2014,12,07,10,25,9.30
2014,12,07,10,26,9.30
2014,12,07,10,27,9.30
2014,12,07,10,28,9.30
2014,12,07,10,29,9.40
2014,12,07,10,30,9.40
2014,12,07,10,31,9.40
2014,12,07,10,32,9.50
2014,12,07,10,33,9.50
2014,12,07,10,34,9.50
2014,12,07,10,35,9.50
2014,12,07,10,36,9.50
2014,12,07,10,37,9.50
2014,12,07,10,38,9.60
2014,12,07,10,39,9.60
2014,12,07,10,40,9.70
2014,12,07,10,41,9.70
2014,12,07,10,42,9.80
2014,12,07,10,43,9.80
2014,12,07,10,44,9.80
2014,12,07,10,45,9.80
2014,12,07,10,46,9.80
2014,12,07,10,47,9.90
2014,12,07,10,48,9.90
2014,12,07,10,49,9.90
2014,12,07,10,50,10.00
2014,12,07,10,51,10.00
2014,12,07,10,52,10.00
2014,12,07,10,53,9.90
2014,12,07,10,54,10.00
2014,12,07,10,55,10.00
2014,12,07,10,56,10.00
2014,12,07,10,57,10.10
2014,12,07,10,58,10.10
2014,12,07,10,59,10.20
2014,12,07,11,00,10.20
2014,12,07,11,01,10.20
2014,12,07,11,02,10.10
2014,12,07,11,03,10.10
2014,12,07,11,04,10.10
2014,12,07,11,05,10.10
2014,12,07,11,06,10.20
2014,12,07,11,07,10.20
2014,12,07,11,08,10.20
2014,12,07,11,09,10.20
2014,12,07,11,10,10.10
2014,12,07,11,11,10.10
2014,12,07,11,12,10.10
2014,12,07,11,13,10.10
2014,12,07,11,14,10.10
2014,12,07,11,15,10.10
2014,12,07,11,16,10.10
2014,12,07,11,17,10.10
2014,12,07,11,18,10.10
2014,12,07,11,19,10.10
2014,12,07,11,20,10.20
2014,12,07,11,21,10.20
2014,12,07,11,22,10.20
2014,12,07,11,23,10.20
2014,12,07,11,24,10.10
2014,12,07,11,25,10.20
2014,12,07,11,26,10.20
2014,12,07,11,27,10.20
2014,12,07,11,28,10.20
2014,12,07,11,29,10.20
2014,12,07,11,30,10.20
2014,12,07,11,31,10.30
2014,12,07,11,32,10.30
2014,12,07,11,33,10.40
2014,12,07,11,34,10.40
2014,12,07,11,35,10.40
2014,12,07,11,36,10.40
2014,12,07,11,37,10.50
2014,12,07,11,38,10.50
2014,12,07,11,39,10.50
2014,12,07,11,40,10.50
2014,12,07,11,41,10.50
2014,12,07,11,42,10.50
2014,12,07,11,43,10.50
2014,12,07,11,44,10.40
2014,12,07,11,45,10.40
2014,12,07,11,46,10.30
2014,12,07,11,47,10.20
2014,12,07,11,48,10.10
2014,12,07,11,49,10.10
2014,12,07,11,50,10.00
2014,12,07,11,51,10.00
2014,12,07,11,52,9.90
2014,12,07,11,53,9.90
2014,12,07,11,54,9.90
2014,12,07,11,55,9.90
2014,12,07,11,56,9.90
2014,12,07,11,57,9.90
2014,12,07,11,58,9.90
2014,12,07,11,59,9.90
2014,12,07,12,00,9.80
2014,12,07,12,01,9.80
2014,12,07,12,02,9.80
2014,12,07,12,03,9.70
2014,12,07,12,04,9.70
2014,12,07,12,05,9.70
2014,12,07,12,06,9.70
2014,12,07,12,07,9.60
2014,12,07,12,08,9.60
2014,12,07,12,09,9.60
2014,12,07,12,10,9.60
2014,12,07,12,11,9.70
2014,12,07,12,12,9.80
2014,12,07,12,13,10.00
2014,12,07,12,14,10.10
2014,12,07,12,15,10.30
2014,12,07,12,16,10.50
2014,12,07,12,17,10.60
2014,12,07,12,18,10.70
2014,12,07,12,19,10.80
2014,12,07,12,20,10.80
2014,12,07,12,21,10.90
2014,12,07,12,22,10.90
2014,12,07,12,23,10.90
2014,12,07,12,24,10.90
2014,12,07,12,25,10.90
2014,12,07,12,26,10.90
2014,12,07,12,27,10.90
2014,12,07,12,28,11.00
2014,12,07,12,29,11.00
2014,12,07,12,30,11.00
2014,12,07,12,31,11.00
2014,12,07,12,32,10.90
2014,12,07,12,33,10.90
2014,12,07,12,34,10.80
2014,12,07,12,35,10.80
2014,12,07,12,36,10.80
2014,12,07,12,37,10.80
2014,12,07,12,38,10.80
2014,12,07,12,39,10.80
2014,12,07,12,40,10.80
2014,12,07,12,41,10.80
2014,12,07,12,42,10.60
2014,12,07,12,43,10.50
2014,12,07,12,44,10.50
2014,12,07,12,45,10.40
2014,12,07,12,46,10.40
2014,12,07,12,47,10.40
2014,12,07,12,48,10.50
2014,12,07,12,49,10.50
2014,12,07,12,50,10.50
2014,12,07,12,51,10.60
2014,12,07,12,52,10.60
2014,12,07,12,53,10.70
2014,12,07,12,54,10.70
2014,12,07,12,55,10.60
2014,12,07,12,56,10.60
2014,12,07,12,57,10.50
2014,12,07,12,58,10.50
2014,12,07,12,59,10.40
2014,12,07,13,00,10.50
2014,12,07,13,01,10.50
2014,12,07,13,02,10.70
2014,12,07,13,03,10.80
2014,12,07,13,04,10.80
2014,12,07,13,05,10.80
2014,12,07,13,06,10.70
2014,12,07,13,07,10.70
2014,12,07,13,08,10.60
2014,12,07,13,09,10.50
2014,12,07,13,10,10.50
2014,12,07,13,11,10.40
2014,12,07,13,12,10.40
2014,12,07,13,13,10.50
2014,12,07,13,14,10.60
2014,12,07,13,15,10.70
2014,12,07,13,16,10.80
2014,12,07,13,17,10.80
2014,12,07,13,18,10.80
2014,12,07,13,19,10.80
2014,12,07,13,20,10.80
2014,12,07,13,21,10.80
2014,12,07,13,22,10.80
2014,12,07,13,23,10.80
2014,12,07,13,24,10.90
2014,12,07,13,25,10.90
2014,12,07,13,26,10.90
2014,12,07,13,27,10.80
2014,12,07,13,28,10.90
2014,12,07,13,29,10.90
2014,12,07,13,30,10.80
2014,12,07,13,31,10.80
2014,12,07,13,32,10.80
2014,12,07,13,33,10.80
2014,12,07,13,34,10.80
2014,12,07,13,35,10.70
2014,12,07,13,36,10.60
2014,12,07,13,37,10.60
2014,12,07,13,38,10.50
2014,12,07,13,39,10.50
2014,12,07,13,40,10.40
2014,12,07,13,41,10.40
2014,12,07,13,42,10.50
2014,12,07,13,43,10.60
2014,12,07,13,44,10.60
2014,12,07,13,45,10.70
2014,12,07,13,46,10.80
2014,12,07,13,47,10.90
2014,12,07,13,48,10.90
2014,12,07,13,49,10.90
2014,12,07,13,50,10.90
2014,12,07,13,51,11.00
2014,12,07,13,52,11.00
2014,12,07,13,53,11.00
2014,12,07,13,54,11.00
2014,12,07,13,55,11.00
2014,12,07,13,56,11.00
2014,12,07,13,57,11.00
2014,12,07,13,58,11.00
2014,12,07,13,59,11.00
2014,12,07,14,00,11.00
2014,12,07,14,01,11.00
2014,12,07,14,02,11.10
2014,12,07,14,03,11.10
2014,12,07,14,04,11.10
2014,12,07,14,05,11.00
2014,12,07,14,06,11.00
2014,12,07,14,07,10.90
2014,12,07,14,08,10.90
2014,12,07,14,09,10.90
2014,12,07,14,10,10.90
2014,12,07,14,11,10.90
2014,12,07,14,12,11.00
2014,12,07,14,13,11.00
2014,12,07,14,14,11.10
2014,12,07,14,15,11.20
2014,12,07,14,16,11.20
2014,12,07,14,17,11.30
2014,12,07,14,18,11.30
2014,12,07,14,19,11.30
2014,12,07,14,20,11.30
2014,12,07,14,21,11.30
2014,12,07,14,22,11.30
2014,12,07,14,23,11.30
2014,12,07,14,24,11.30
2014,12,07,14,25,11.40
2014,12,07,14,26,11.40
2014,12,07,14,27,11.40
2014,12,07,14,28,11.40
2014,12,07,14,29,11.40
2014,12,07,14,30,11.40
2014,12,07,14,31,11.40
2014,12,07,14,32,11.40
2014,12,07,14,33,11.40
2014,12,07,14,34,11.40
2014,12,07,14,35,11.40
2014,12,07,14,36,11.40
2014,12,07,14,37,11.40
2014,12,07,14,38,11.40
2014,12,07,14,39,11.30
2014,12,07,14,40,11.30
2014,12,07,14,41,11.30
2014,12,07,14,42,11.30
2014,12,07,14,43,11.30
2014,12,07,14,44,11.30
2014,12,07,14,45,11.30
2014,12,07,14,46,11.30
2014,12,07,14,47,11.20
2014,12,07,14,48,11.20
2014,12,07,14,49,11.20
2014,12,07,14,50,11.20
2014,12,07,14,51,11.20
2014,12,07,14,52,11.20
2014,12,07,14,53,11.20
2014,12,07,14,54,11.20
2014,12,07,14,55,11.30
2014,12,07,14,56,11.30
2014,12,07,14,57,11.30
2014,12,07,14,58,11.30
2014,12,07,14,59,11.20
2014,12,07,15,00,11.20
2014,12,07,15,01,11.10
2014,12,07,15,02,11.10
2014,12,07,15,03,11.10
2014,12,07,15,04,11.20
2014,12,07,15,05,11.20
2014,12,07,15,06,11.20
2014,12,07,15,07,11.20
2014,12,07,15,08,11.20
2014,12,07,15,09,11.30
2014,12,07,15,10,11.30
2014,12,07,15,11,11.20
2014,12,07,15,12,11.20
2014,12,07,15,13,11.10
2014,12,07,15,14,11.10
2014,12,07,15,15,11.10
2014,12,07,15,16,11.10
2014,12,07,15,17,11.20
2014,12,07,15,18,11.20
2014,12,07,15,19,11.10
2014,12,07,15,20,11.10
2014,12,07,15,21,11.00
2014,12,07,15,22,10.90
2014,12,07,15,23,10.90
2014,12,07,15,24,10.90
2014,12,07,15,25,10.90
2014,12,07,15,26,10.90
2014,12,07,15,27,10.90
2014,12,07,15,28,10.90
2014,12,07,15,29,10.90
2014,12,07,15,30,10.90
2014,12,07,15,31,11.00
2014,12,07,15,32,11.00
2014,12,07,15,33,11.10
2014,12,07,15,34,11.10
2014,12,07,15,35,11.10
2014,12,07,15,36,11.20
2014,12,07,15,37,11.30
2014,12,07,15,38,11.30
2014,12,07,15,39,11.30
2014,12,07,15,40,11.30
2014,12,07,15,41,11.40
2014,12,07,15,42,11.40
2014,12,07,15,43,11.50
2014,12,07,15,44,11.50
2014,12,07,15,45,11.50
2014,12,07,15,46,11.50
2014,12,07,15,47,11.50
2014,12,07,15,48,11.50
2014,12,07,15,49,11.50
2014,12,07,15,50,11.50
2014,12,07,15,51,11.40
2014,12,07,15,52,11.40
2014,12,07,15,53,11.40
2014,12,07,15,54,11.40
2014,12,07,15,55,11.30
2014,12,07,15,56,11.30
2014,12,07,15,57,11.30
2014,12,07,15,58,11.30
2014,12,07,15,59,11.30
2014,12,07,16,00,11.30
2014,12,07,16,01,11.30
2014,12,07,16,02,11.30
2014,12,07,16,03,11.30
2014,12,07,16,04,11.30
2014,12,07,16,05,11.20
2014,12,07,16,06,11.20
2014,12,07,16,07,11.20
2014,12,07,16,08,11.20
2014,12,07,16,09,11.20
2014,12,07,16,10,11.20
2014,12,07,16,11,11.10
2014,12,07,16,12,11.10
2014,12,07,16,13,11.10
2014,12,07,16,14,11.10
2014,12,07,16,15,11.10
2014,12,07,16,16,11.10
2014,12,07,16,17,11.10
2014,12,07,16,18,11.10
2014,12,07,16,19,11.10
2014,12,07,16,20,11.20
2014,12,07,16,21,11.20
2014,12,07,16,22,11.10
2014,12,07,16,23,11.10
2014,12,07,16,24,11.10
2014,12,07,16,25,11.10
2014,12,07,16,26,11.10
2014,12,07,16,27,11.10
2014,12,07,16,28,11.10
2014,12,07,16,29,11.10
2014,12,07,16,30,11.10
2014,12,07,16,31,11.10
2014,12,07,16,32,11.10
2014,12,07,16,33,11.10
2014,12,07,16,34,11.00
2014,12,07,16,35,11.00
2014,12,07,16,36,11.00
2014,12,07,16,37,11.00
2014,12,07,16,38,11.00
2014,12,07,16,39,11.00
2014,12,07,16,40,11.00
2014,12,07,16,41,11.10
2014,12,07,16,42,11.10
2014,12,07,16,43,11.20
2014,12,07,16,44,11.20
2014,12,07,16,45,11.20
2014,12,07,16,46,11.10
2014,12,07,16,47,11.10
2014,12,07,16,48,11.10
2014,12,07,16,49,11.10
2014,12,07,16,50,11.20
2014,12,07,16,51,11.20
2014,12,07,16,52,11.20
2014,12,07,16,53,11.10
2014,12,07,16,54,11.10
2014,12,07,16,55,11.10
2014,12,07,16,56,11.10
2014,12,07,16,57,11.00
2014,12,07,16,58,11.00
2014,12,07,16,59,11.00
2014,12,07,17,00,11.10
2014,12,07,17,01,11.10
2014,12,07,17,02,11.20
2014,12,07,17,03,11.20
2014,12,07,17,04,11.20
2014,12,07,17,05,11.20
2014,12,07,17,06,11.20
2014,12,07,17,07,11.20
2014,12,07,17,08,11.20
2014,12,07,17,09,11.20
2014,12,07,17,10,11.20
2014,12,07,17,11,11.10
2014,12,07,17,12,11.10
2014,12,07,17,13,11.00
2014,12,07,17,14,11.00
2014,12,07,17,15,11.00
2014,12,07,17,16,10.90
2014,12,07,17,17,10.80
2014,12,07,17,18,10.80
2014,12,07,17,19,10.80
2014,12,07,17,20,10.80
2014,12,07,17,21,10.80
2014,12,07,17,22,10.90
2014,12,07,17,23,10.90
2014,12,07,17,24,10.90
2014,12,07,17,25,10.90
2014,12,07,17,26,10.90
2014,12,07,17,27,10.90
2014,12,07,17,28,11.00
2014,12,07,17,29,11.00
2014,12,07,17,30,11.00
2014,12,07,17,31,11.00
2014,12,07,17,32,11.00
2014,12,07,17,33,11.00
2014,12,07,17,34,11.00
2014,12,07,17,35,11.00
2014,12,07,17,36,11.00
2014,12,07,17,37,10.90
2014,12,07,17,38,10.90
2014,12,07,17,39,10.90
2014,12,07,17,40,10.90
2014,12,07,17,41,10.90
2014,12,07,17,42,10.90
2014,12,07,17,43,10.90
2014,12,07,17,44,10.90
2014,12,07,17,45,10.90
2014,12,07,17,46,10.90
2014,12,07,17,47,10.90
2014,12,07,17,48,10.90
2014,12,07,17,49,11.00
2014,12,07,17,50,11.00
2014,12,07,17,51,11.10
2014,12,07,17,52,11.10
2014,12,07,17,53,11.10
2014,12,07,17,54,11.10
2014,12,07,17,55,11.20
2014,12,07,17,56,11.30
2014,12,07,17,57,11.30
2014,12,07,17,58,11.30
2014,12,07,17,59,11.30
2014,12,07,18,00,11.20
2014,12,07,18,01,11.20
2014,12,07,18,02,11.20
2014,12,07,18,03,11.20
2014,12,07,18,04,11.20
2014,12,07,18,05,11.20
2014,12,07,18,06,11.20
2014,12,07,18,07,11.20
2014,12,07,18,08,11.20
2014,12,07,18,09,11.30
2014,12,07,18,10,11.30
2014,12,07,18,11,11.20
2014,12,07,18,12,11.20
2014,12,07,18,13,11.20
2014,12,07,18,14,11.10
2014,12,07,18,15,11.10
2014,12,07,18,16,11.20
2014,12,07,18,17,11.20
2014,12,07,18,18,11.30
2014,12,07,18,19,11.40
2014,12,07,18,20,11.40
2014,12,07,18,21,11.40
2014,12,07,18,22,11.40
2014,12,07,18,23,11.40
2014,12,07,18,24,11.30
2014,12,07,18,25,11.40
2014,12,07,18,26,11.40
2014,12,07,18,27,11.40
2014,12,07,18,28,11.40
2014,12,07,18,29,11.40
2014,12,07,18,30,11.40
2014,12,07,18,31,11.40
2014,12,07,18,32,11.40
2014,12,07,18,33,11.30
2014,12,07,18,34,11.30
2014,12,07,18,35,11.30
2014,12,07,18,36,11.30
2014,12,07,18,37,11.30
2014,12,07,18,38,11.30
2014,12,07,18,39,11.30
2014,12,07,18,40,11.30
2014,12,07,18,41,11.30